This is the latest recevied weather packets stored in our database for station/object AI9F. If no packets are shown the sender has not sent any weather packets the latest 10 day(s).
| Time | Temp. | Humidity | Pressure | Rain* | Wind** | Luminosity | Snow |
|---|---|---|---|---|---|---|---|
| 1777642444 | 10.56° C | 57% | 1016.7 hPa | 0 mm | - | 43 W/m² | - |
| 1777642140 | 10.56° C | 58% | 1016.7 hPa | 0 mm | - | 60 W/m² | - |
| 1777641836 | 10.56° C | 56% | 1016.7 hPa | 0 mm | - | 272 W/m² | - |
| 1777641532 | 10.56° C | 57% | 1016.7 hPa | 0 mm | - | 135 W/m² | - |
| 1777641226 | 10.56° C | 55% | 1016.8 hPa | 0 mm | - | 252 W/m² | - |
| 1777640924 | 10.56° C | 54% | 1016.7 hPa | 0 mm | - | 209 W/m² | - |
| 1777640621 | 10.56° C | 56% | 1016.8 hPa | 0 mm | - | 220 W/m² | - |
| 1777640317 | 10.56° C | 57% | 1016.8 hPa | 0 mm | - | 203 W/m² | - |
| 1777640013 | 10.56° C | 59% | 1016.8 hPa | 0 mm | - | 188 W/m² | - |
| 1777639711 | 10° C | 62% | 1016.8 hPa | 0 mm | - | 172 W/m² | - |
| 1777639409 | 10° C | 62% | 1016.6 hPa | 0 mm | - | 157 W/m² | - |
| 1777639108 | 10° C | 64% | 1016.5 hPa | 0 mm | - | 143 W/m² | - |
| 1777638807 | 10° C | 64% | 1016.5 hPa | 0 mm | - | 130 W/m² | - |
| 1777638506 | 10° C | 66% | 1016.3 hPa | 0 mm | - | 114 W/m² | - |
| 1777638204 | 10° C | 66% | 1016.6 hPa | 0 mm | - | 101 W/m² | - |
| 1777637900 | 9.44° C | 66% | 1016.6 hPa | 0 mm | - | 89 W/m² | - |
| 1777637596 | 9.44° C | 68% | 1016.4 hPa | 0 mm | - | 77 W/m² | - |
| 1777637293 | 9.44° C | 71% | 1016.4 hPa | 0 mm | - | 62 W/m² | - |
| 1777636990 | 9.44° C | 73% | 1016.5 hPa | 0 mm | - | 53 W/m² | - |
| 1777636685 | 8.89° C | 74% | 1016.2 hPa | 0 mm | - | 45 W/m² | - |
| 1777636382 | 8.89° C | 75% | 1016.2 hPa | 0 mm | - | 32 W/m² | - |
| 1777636082 | 8.89° C | 75% | 1015.9 hPa | 0 mm | - | 25 W/m² | - |
| 1777635778 | 8.89° C | 75% | 1016.1 hPa | 0 mm | - | 23 W/m² | - |
| 1777635475 | 8.89° C | 77% | 1015.8 hPa | 0 mm | - | 21 W/m² | - |
| 1777635172 | 8.89° C | 76% | 1015.7 hPa | 0 mm | - | 17 W/m² | - |
* Rain latest hour (hover to see other rain measurements)
** Current wind speed in m/s (hover to see current wind gust speed)